North Pole, Alaska, United States (99705)
Lat: 64.75N, Lon: 147.35W
Wx Zone: AKZ222
Local Info
Past Weather Observations for Saturday, November 15, 2014

NOTE: This archive is for the closest National Weather Service station to North Pole. Information may differ from the station used for current weather conditions.

Click here for Long-term Archive

Time Weather Temperature Dewpoint Humidity Pressure Winds Precip Visibility
23:56
Clear
1°F / -17°C -4°F / -20°C 78% 30.18 in
(1022 mb)
Calm - 10SM
22:56
Clear
1°F / -17°C -2°F / -19°C 85% 30.18 in
(1022 mb)
Calm - 10SM
21:56
Clear
1°F / -17°C -2°F / -19°C 85% 30.18 in
(1022 mb)
SE 3.5 mph
(SE 6 kph)
- 10SM
20:56
Clear
3°F / -16°C -2°F / -19°C 78% 30.18 in
(1022 mb)
Calm - 10SM
19:56
Clear
1°F / -17°C -2°F / -19°C 85% 30.18 in
(1022 mb)
Calm - 10SM
18:56
Clear
3°F / -16°C -2°F / -19°C 78% 30.18 in
(1022 mb)
Calm - 10SM
17:56
Clear
3°F / -16°C °F / -18°C 85% 30.18 in
(1022 mb)
Calm - 10SM
16:56
Clear
7°F / -14°C 1°F / -17°C 78% 30.18 in
(1022 mb)
Calm - 10SM
15:56
Clear
9°F / -13°C 3°F / -16°C 78% 30.18 in
(1022 mb)
Calm - 10SM
14:56
Clear
9°F / -13°C 5°F / -15°C 85% 30.21 in
(1023 mb)
Calm - 10SM
13:56
Clear
10°F / -12°C 5°F / -15°C 79% 30.21 in
(1023 mb)
Calm - 10SM
13:05
Partly Cloudy
9°F / -13°C 3°F / -16°C 78% 30.24 in
(1024 mb)
Calm - 10SM
12:56
Mostly Cloudy
9°F / -13°C 5°F / -15°C 85% 30.24 in
(1024 mb)
Calm - 10SM
12:54
Mostly Cloudy
9°F / -13°C 5°F / -15°C 85% 30.24 in
(1024 mb)
Calm - 10SM
12:32
Partly Cloudy
9°F / -13°C 5°F / -15°C 85% 30.24 in
(1024 mb)
Calm - 10SM
11:56
Overcast
7°F / -14°C 1°F / -17°C 78% 30.24 in
(1024 mb)
Calm - 7SM
10:56
Mostly Cloudy
1°F / -17°C -2°F / -19°C 85% 30.24 in
(1024 mb)
Calm - 10SM
10:32
Mostly Cloudy
1°F / -17°C -2°F / -19°C 85% 30.27 in
(1025 mb)
Calm - 10SM
10:23
Partly Cloudy
1°F / -17°C -2°F / -19°C 85% 30.27 in
(1025 mb)
Calm - 10SM
09:56
Clear
1°F / -17°C -2°F / -19°C 85% 30.27 in
(1025 mb)
Calm - 10SM
08:56
Clear
1°F / -17°C -2°F / -19°C 85% 30.27 in
(1025 mb)
Calm - 10SM
08:13
Partly Cloudy
3°F / -16°C -2°F / -19°C 78% 30.27 in
(1025 mb)
Calm - 10SM
07:56
Overcast
3°F / -16°C °F / -18°C 85% 30.27 in
(1025 mb)
Calm - 10SM
07:10
Overcast
Fog And Mist
3°F / -16°C °F / -18°C 85% 30.27 in
(1025 mb)
Calm - 3SM
07:03
Overcast
Fog And Mist
3°F / -16°C °F / -18°C 85% 30.27 in
(1025 mb)
Calm - 1 1/4SM
06:56
Overcast
Fog And Mist
3°F / -16°C °F / -18°C 85% 30.27 in
(1025 mb)
Calm - 2SM
05:56
Overcast
3°F / -16°C °F / -18°C 85% 30.27 in
(1025 mb)
Calm - 7SM
05:40
Overcast
Fog And Mist
3°F / -16°C °F / -18°C 85% 30.27 in
(1025 mb)
Calm - 3SM
05:36
Overcast
Fog And Mist
3°F / -16°C °F / -18°C 85% 30.27 in
(1025 mb)
Calm - 1 1/2SM
04:56
Obscured
Fog
3°F / -16°C 1°F / -17°C 92% 30.27 in
(1025 mb)
Calm - 1/2SM
04:35
Obscured
Fog
3°F / -16°C 1°F / -17°C 92% 30.27 in
(1025 mb)
Calm - 1/4SM
04:25
Overcast
Fog And Mist
3°F / -16°C °F / -18°C 85% 30.27 in
(1025 mb)
Calm - 1 1/2SM
04:04
Mostly Cloudy
3°F / -16°C °F / -18°C 85% 30.27 in
(1025 mb)
Calm - 10SM
03:56
Partly Cloudy
3°F / -16°C °F / -18°C 85% 30.27 in
(1025 mb)
Calm - 10SM
03:33
Partly Cloudy
3°F / -16°C °F / -18°C 85% 30.27 in
(1025 mb)
Calm - 10SM
03:22
Mostly Cloudy
5°F / -15°C 1°F / -17°C 85% 30.27 in
(1025 mb)
Calm - 9SM
03:15
Overcast
Fog And Mist
5°F / -15°C 1°F / -17°C 85% 30.27 in
(1025 mb)
Calm - 2SM
02:56
Obscured
Fog
7°F / -14°C 3°F / -16°C 85% 30.27 in
(1025 mb)
Calm - 1/4SM
01:56
Overcast
Fog
5°F / -15°C 1°F / -17°C 85% 30.24 in
(1024 mb)
Calm - 1/2SM
01:51
Overcast
Fog
5°F / -15°C 1°F / -17°C 85% 30.24 in
(1024 mb)
Calm - 1/2SM
01:42
Overcast
Fog And Mist
3°F / -16°C 1°F / -17°C 92% 30.24 in
(1024 mb)
Calm - 1 3/4SM
00:56
Overcast
3°F / -16°C -2°F / -19°C 78% 30.24 in
(1024 mb)
Calm - 10SM
00:02
Overcast
Fog And Mist
3°F / -16°C °F / -18°C 85% 30.24 in
(1024 mb)
Calm - 3SM
Time Weather Temperature Dewpoint Humidity Pressure Winds Precip Visibility


Weather for websites

WeatherForYou.com, LLC is not responsible for any damages or problems caused by this service. Current weather conditions are obtained from the closest station including government and personal stations which may have varying degrees of accuracy. Weather forecasts are derived from the NOAA NDFD. Like all things, this site belongs to Jesus Christ... He just trusts me to maintain it. If you have any questions or comments email webmaster@weatherforyou.com

Copyright © 2014, WeatherForYou.com LLC. All rights reserved.